Time,TemperatureF,DewpointF,PressureIn,WindDirection,WindDirectionDegrees,WindSpeedMPH,WindSpeedGustMPH,Humidity,HourlyPrecipIn,Conditions,Clouds,dailyrainin,SoftwareType,DateUTC
2013-02-20 00:00:00,1.4,-7.7,29.64,West,270,1.8,3.1,65,0.00,,,0.00,WUHU216HW,2013-02-20 06:00:00,
2013-02-20 00:05:00,1.4,-7.7,29.65,West,270,1.3,2.2,65,0.00,,,0.00,WUHU216HW,2013-02-20 06:05:00,
2013-02-20 00:10:00,1.4,-7.7,29.64,WNW,293,1.1,2.2,65,0.00,,,0.00,WUHU216HW,2013-02-20 06:10:00,
2013-02-20 00:15:00,1.3,-7.9,29.64,WNW,293,0.7,2.5,65,0.00,,,0.00,WUHU216HW,2013-02-20 06:15:00,
2013-02-20 00:20:00,1.1,-8.1,29.65,West,270,0.2,2.5,65,0.00,,,0.00,WUHU216HW,2013-02-20 06:20:00,
2013-02-20 00:25:00,1.1,-8.1,29.65,SW,225,2.0,2.0,65,0.00,,,0.00,WUHU216HW,2013-02-20 06:25:00,
2013-02-20 00:30:00,1.1,-7.7,29.65,West,270,0.4,2.0,66,0.00,,,0.00,WUHU216HW,2013-02-20 06:30:00,
2013-02-20 00:35:00,0.9,-7.9,29.65,West,270,0.4,1.1,66,0.00,,,0.00,WUHU216HW,2013-02-20 06:35:00,
2013-02-20 00:40:00,0.9,-7.9,29.65,WNW,293,1.8,1.8,66,0.00,,,0.00,WUHU216HW,2013-02-20 06:40:00,
2013-02-20 00:45:00,0.7,-8.1,29.65,West,270,2.5,2.5,66,0.00,,,0.00,WUHU216HW,2013-02-20 06:45:00,
2013-02-20 00:50:00,0.5,-8.3,29.65,WNW,293,0.9,2.5,66,0.00,,,0.00,WUHU216HW,2013-02-20 06:50:00,
2013-02-20 00:55:00,0.5,-8.3,29.66,WNW,293,0.2,2.2,66,0.00,,,0.00,WUHU216HW,2013-02-20 06:55:00,
2013-02-20 01:00:00,0.4,-8.5,29.66,West,270,2.2,2.5,66,0.00,,,0.00,WUHU216HW,2013-02-20 07:00:00,
2013-02-20 01:05:00,0.4,-8.1,29.66,WNW,293,2.2,3.1,67,0.00,,,0.00,WUHU216HW,2013-02-20 07:05:00,
2013-02-20 01:10:00,0.2,-8.3,29.66,WNW,293,1.8,3.1,67,0.00,,,0.00,WUHU216HW,2013-02-20 07:10:00,
2013-02-20 01:15:00,0.0,-8.4,29.66,WSW,248,2.7,2.9,67,0.00,,,0.00,WUHU216HW,2013-02-20 07:15:00,
2013-02-20 01:20:00,0.0,-8.4,29.66,WSW,248,2.0,3.1,67,0.00,,,0.00,WUHU216HW,2013-02-20 07:20:00,
2013-02-20 01:25:00,-0.2,-8.6,29.67,West,270,1.6,3.1,67,0.00,,,0.00,WUHU216HW,2013-02-20 07:25:00,
2013-02-20 01:30:00,-0.4,-8.8,29.66,West,270,0.4,2.0,67,0.00,,,0.00,WUHU216HW,2013-02-20 07:30:00,
2013-02-20 01:35:00,-0.4,-8.8,29.67,West,270,2.2,2.2,67,0.00,,,0.00,WUHU216HW,2013-02-20 07:35:00,
2013-02-20 01:40:00,-0.4,-8.8,29.67,WNW,293,0.0,2.2,67,0.00,,,0.00,WUHU216HW,2013-02-20 07:40:00,
2013-02-20 01:45:00,-0.4,-8.8,29.67,WSW,248,1.3,2.2,67,0.00,,,0.00,WUHU216HW,2013-02-20 07:45:00,
2013-02-20 01:50:00,-0.5,-8.7,29.67,West,270,1.1,2.2,68,0.00,,,0.00,WUHU216HW,2013-02-20 07:50:00,
2013-02-20 01:55:00,-0.5,-8.7,29.67,West,270,1.1,2.5,68,0.00,,,0.00,WUHU216HW,2013-02-20 07:55:00,
2013-02-20 02:00:00,-0.7,-8.8,29.67,WNW,293,0.4,2.5,68,0.00,,,0.00,WUHU216HW,2013-02-20 08:00:00,
2013-02-20 02:05:00,-0.7,-8.8,29.67,West,270,1.8,1.8,68,0.00,,,0.00,WUHU216HW,2013-02-20 08:05:00,
2013-02-20 02:10:00,-0.7,-8.8,29.67,West,270,0.4,2.9,68,0.00,,,0.00,WUHU216HW,2013-02-20 08:10:00,
2013-02-20 02:15:00,-0.9,-9.0,29.67,West,270,2.9,2.9,68,0.00,,,0.00,WUHU216HW,2013-02-20 08:15:00,
2013-02-20 02:20:00,-0.9,-8.7,29.67,West,270,0.9,2.9,69,0.00,,,0.00,WUHU216HW,2013-02-20 08:20:00,
2013-02-20 02:25:00,-1.1,-8.9,29.67,WSW,248,0.9,1.8,69,0.00,,,0.00,WUHU216HW,2013-02-20 08:25:00,
2013-02-20 02:30:00,-1.1,-8.9,29.67,WSW,248,0.0,2.0,69,0.00,,,0.00,WUHU216HW,2013-02-20 08:30:00,
2013-02-20 02:35:00,-1.1,-8.9,29.67,West,270,0.0,2.0,69,0.00,,,0.00,WUHU216HW,2013-02-20 08:35:00,
2013-02-20 02:40:00,-1.3,-9.1,29.67,West,270,1.3,1.6,69,0.00,,,0.00,WUHU216HW,2013-02-20 08:40:00,
2013-02-20 02:45:00,-1.3,-9.1,29.68,West,270,1.6,2.0,69,0.00,,,0.00,WUHU216HW,2013-02-20 08:45:00,
2013-02-20 02:50:00,-1.3,-9.1,29.68,West,270,1.3,2.0,69,0.00,,,0.00,WUHU216HW,2013-02-20 08:50:00,
2013-02-20 02:55:00,-1.4,-9.2,29.68,West,270,0.9,2.9,69,0.00,,,0.00,WUHU216HW,2013-02-20 08:55:00,
2013-02-20 03:00:00,-1.4,-9.2,29.68,West,270,1.8,3.4,69,0.00,,,0.00,WUHU216HW,2013-02-20 09:00:00,
2013-02-20 03:05:00,-1.6,-9.3,29.68,WSW,248,3.1,3.4,69,0.00,,,0.00,WUHU216HW,2013-02-20 09:05:00,
2013-02-20 03:10:00,-1.6,-9.3,29.68,West,270,0.9,3.1,69,0.00,,,0.00,WUHU216HW,2013-02-20 09:10:00,
2013-02-20 03:15:00,-1.8,-9.5,29.69,West,270,2.9,2.9,69,0.00,,,0.00,WUHU216HW,2013-02-20 09:15:00,
2013-02-20 03:20:00,-1.8,-9.5,29.68,West,270,2.0,3.4,69,0.00,,,0.00,WUHU216HW,2013-02-20 09:20:00,
2013-02-20 03:25:00,-2.0,-9.7,29.69,West,270,1.1,3.4,69,0.00,,,0.00,WUHU216HW,2013-02-20 09:25:00,
2013-02-20 03:30:00,-2.2,-9.9,29.69,West,270,1.8,2.5,69,0.00,,,0.00,WUHU216HW,2013-02-20 09:30:00,
2013-02-20 03:35:00,-2.2,-9.9,29.69,West,270,1.6,2.2,69,0.00,,,0.00,WUHU216HW,2013-02-20 09:35:00,
2013-02-20 03:40:00,-2.2,-9.9,29.69,WSW,248,1.6,1.8,69,0.00,,,0.00,WUHU216HW,2013-02-20 09:40:00,
2013-02-20 03:45:00,-2.3,-10.1,29.69,West,270,0.2,1.8,69,0.00,,,0.00,WUHU216HW,2013-02-20 09:45:00,
2013-02-20 03:50:00,-2.5,-9.9,29.69,West,270,1.6,2.0,70,0.00,,,0.00,WUHU216HW,2013-02-20 09:50:00,
2013-02-20 03:55:00,-2.5,-9.9,29.69,West,270,1.8,2.9,70,0.00,,,0.00,WUHU216HW,2013-02-20 09:55:00,
2013-02-20 04:00:00,-2.5,-9.9,29.69,West,270,2.0,2.9,70,0.00,,,0.00,WUHU216HW,2013-02-20 10:00:00,
2013-02-20 04:05:00,-2.5,-9.9,29.69,West,270,1.8,2.9,70,0.00,,,0.00,WUHU216HW,2013-02-20 10:05:00,
2013-02-20 04:10:00,-2.7,-10.1,29.69,WNW,293,0.2,2.7,70,0.00,,,0.00,WUHU216HW,2013-02-20 10:10:00,
2013-02-20 04:15:00,-2.7,-10.1,29.69,WSW,248,1.1,2.7,70,0.00,,,0.00,WUHU216HW,2013-02-20 10:15:00,
2013-02-20 04:20:00,-2.9,-10.3,29.69,WSW,248,2.2,2.2,70,0.00,,,0.00,WUHU216HW,2013-02-20 10:20:00,
2013-02-20 04:25:00,-2.9,-10.0,29.69,WNW,293,2.2,2.5,71,0.00,,,0.00,WUHU216HW,2013-02-20 10:25:00,
2013-02-20 04:30:00,-2.9,-10.0,29.69,West,270,1.8,2.5,71,0.00,,,0.00,WUHU216HW,2013-02-20 10:30:00,
2013-02-20 04:35:00,-3.1,-10.2,29.70,West,270,2.2,3.1,71,0.00,,,0.00,WUHU216HW,2013-02-20 10:35:00,
2013-02-20 04:40:00,-3.2,-10.3,29.70,WNW,293,2.5,3.4,71,0.00,,,0.00,WUHU216HW,2013-02-20 10:40:00,
2013-02-20 04:45:00,-3.2,-10.3,29.70,SW,225,2.9,3.4,71,0.00,,,0.00,WUHU216HW,2013-02-20 10:45:00,
2013-02-20 04:50:00,-3.2,-10.3,29.70,West,270,3.4,4.3,71,0.00,,,0.00,WUHU216HW,2013-02-20 10:50:00,
2013-02-20 04:55:00,-3.4,-10.5,29.70,WSW,248,1.3,4.3,71,0.00,,,0.00,WUHU216HW,2013-02-20 10:55:00,
2013-02-20 05:00:00,-3.6,-10.7,29.70,West,270,1.6,3.4,71,0.00,,,0.00,WUHU216HW,2013-02-20 11:00:00,
2013-02-20 05:05:00,-3.6,-10.7,29.70,West,270,0.4,2.5,71,0.00,,,0.00,WUHU216HW,2013-02-20 11:05:00,
2013-02-20 05:10:00,-3.6,-10.7,29.70,West,270,0.4,1.8,71,0.00,,,0.00,WUHU216HW,2013-02-20 11:10:00,
2013-02-20 05:15:00,-3.6,-10.4,29.70,WNW,293,0.0,1.1,72,0.00,,,0.00,WUHU216HW,2013-02-20 11:15:00,
2013-02-20 05:20:00,-3.6,-10.4,29.70,West,270,0.0,0.2,72,0.00,,,0.00,WUHU216HW,2013-02-20 11:20:00,
2013-02-20 05:25:00,-3.6,-10.4,29.70,West,270,0.0,0.0,72,0.00,,,0.00,WUHU216HW,2013-02-20 11:25:00,
2013-02-20 05:30:00,-3.8,-10.6,29.70,WSW,248,0.2,0.2,72,0.00,,,0.00,WUHU216HW,2013-02-20 11:30:00,
2013-02-20 05:35:00,-3.8,-10.6,29.70,WSW,248,0.0,0.2,72,0.00,,,0.00,WUHU216HW,2013-02-20 11:35:00,
2013-02-20 05:40:00,-3.8,-10.6,29.70,WSW,248,0.0,0.0,72,0.00,,,0.00,WUHU216HW,2013-02-20 11:40:00,
2013-02-20 05:45:00,-3.8,-10.6,29.70,West,270,0.0,0.0,72,0.00,,,0.00,WUHU216HW,2013-02-20 11:45:00,
2013-02-20 05:50:00,-3.8,-10.6,29.70,West,270,0.2,0.2,72,0.00,,,0.00,WUHU216HW,2013-02-20 11:50:00,
2013-02-20 05:55:00,-3.8,-10.6,29.70,West,270,1.1,1.1,72,0.00,,,0.00,WUHU216HW,2013-02-20 11:55:00,
2013-02-20 06:00:00,-3.6,-10.4,29.70,West,270,0.4,1.3,72,0.00,,,0.00,WUHU216HW,2013-02-20 12:00:00,
2013-02-20 06:05:00,-3.6,-10.4,29.71,West,270,0.0,1.3,72,0.00,,,0.00,WUHU216HW,2013-02-20 12:05:00,
2013-02-20 06:10:00,-3.6,-10.4,29.71,West,270,1.1,1.1,72,0.00,,,0.00,WUHU216HW,2013-02-20 12:10:00,
2013-02-20 06:15:00,-3.6,-10.4,29.71,West,270,1.1,1.6,72,0.00,,,0.00,WUHU216HW,2013-02-20 12:15:00,
2013-02-20 06:20:00,-3.8,-10.6,29.71,WNW,293,1.6,1.8,72,0.00,,,0.00,WUHU216HW,2013-02-20 12:20:00,
2013-02-20 06:25:00,-3.8,-10.6,29.71,West,270,1.8,2.2,72,0.00,,,0.00,WUHU216HW,2013-02-20 12:25:00,
2013-02-20 06:30:00,-4.0,-10.8,29.71,West,270,2.2,2.5,72,0.00,,,0.00,WUHU216HW,2013-02-20 12:30:00,
2013-02-20 06:35:00,-4.0,-10.8,29.72,WNW,293,3.6,3.8,72,0.00,,,0.00,WUHU216HW,2013-02-20 12:35:00,
2013-02-20 06:40:00,-4.3,-11.2,29.72,West,270,2.0,3.8,72,0.00,,,0.00,WUHU216HW,2013-02-20 12:40:00,
2013-02-20 06:45:00,-4.5,-11.6,29.71,NW,315,1.1,2.7,71,0.00,,,0.00,WUHU216HW,2013-02-20 12:45:00,
2013-02-20 06:50:00,-4.5,-11.6,29.72,West,270,0.0,2.5,71,0.00,,,0.00,WUHU216HW,2013-02-20 12:50:00,
2013-02-20 06:55:00,-4.7,-11.8,29.71,WNW,293,1.1,2.5,71,0.00,,,0.00,WUHU216HW,2013-02-20 12:55:00,
2013-02-20 07:00:00,-4.7,-11.8,29.72,West,270,0.9,1.1,71,0.00,,,0.00,WUHU216HW,2013-02-20 13:00:00,
2013-02-20 07:05:00,-4.7,-11.8,29.72,WSW,248,0.2,1.1,71,0.00,,,0.00,WUHU216HW,2013-02-20 13:05:00,
2013-02-20 07:10:00,-4.7,-11.8,29.72,SW,225,0.0,0.9,71,0.00,,,0.00,WUHU216HW,2013-02-20 13:10:00,
2013-02-20 07:15:00,-4.7,-11.8,29.72,WNW,293,0.0,0.9,71,0.00,,,0.00,WUHU216HW,2013-02-20 13:15:00,
2013-02-20 07:20:00,-4.7,-11.8,29.72,WSW,248,0.0,0.2,71,0.00,,,0.00,WUHU216HW,2013-02-20 13:20:00,
2013-02-20 07:25:00,-4.3,-10.9,29.72,WNW,293,0.2,0.2,73,0.00,,,0.00,WUHU216HW,2013-02-20 13:25:00,
2013-02-20 07:30:00,-4.1,-10.7,29.72,WNW,293,0.0,0.2,73,0.00,,,0.00,WUHU216HW,2013-02-20 13:30:00,
2013-02-20 07:35:00,-3.6,-10.2,29.72,WSW,248,0.4,1.1,73,0.00,,,0.00,WUHU216HW,2013-02-20 13:35:00,
2013-02-20 07:40:00,-3.2,-9.8,29.72,WNW,293,0.0,1.1,73,0.00,,,0.00,WUHU216HW,2013-02-20 13:40:00,
2013-02-20 07:45:00,-2.9,-9.4,29.73,West,270,0.4,0.9,73,0.00,,,0.00,WUHU216HW,2013-02-20 13:45:00,
2013-02-20 07:50:00,-2.5,-9.1,29.73,WNW,293,0.4,1.8,73,0.00,,,0.00,WUHU216HW,2013-02-20 13:50:00,
2013-02-20 07:55:00,-2.2,-8.7,29.73,WNW,293,0.7,1.8,73,0.00,,,0.00,WUHU216HW,2013-02-20 13:55:00,
2013-02-20 08:00:00,-1.8,-8.4,29.73,West,270,0.2,1.3,73,0.00,,,0.00,WUHU216HW,2013-02-20 14:00:00,
2013-02-20 08:05:00,-1.4,-8.1,29.73,WNW,293,0.0,1.1,73,0.00,,,0.00,WUHU216HW,2013-02-20 14:05:00,
2013-02-20 08:10:00,-1.1,-7.7,29.73,WNW,293,0.2,0.4,73,0.00,,,0.00,WUHU216HW,2013-02-20 14:10:00,
2013-02-20 08:15:00,-1.1,-8.0,29.72,NNW,338,0.0,1.8,72,0.00,,,0.00,WUHU216HW,2013-02-20 14:15:00,
2013-02-20 08:20:00,-1.1,-8.0,29.73,NNE,23,0.9,1.8,72,0.00,,,0.00,WUHU216HW,2013-02-20 14:20:00,
2013-02-20 08:25:00,-1.4,-8.4,29.73,NNE,23,0.4,1.8,72,0.00,,,0.00,WUHU216HW,2013-02-20 14:25:00,
2013-02-20 08:30:00,-1.3,-8.2,29.72,North,0,2.5,2.5,72,0.00,,,0.00,WUHU216HW,2013-02-20 14:30:00,
2013-02-20 08:35:00,-1.4,-8.4,29.72,North,0,0.2,2.5,72,0.00,,,0.00,WUHU216HW,2013-02-20 14:35:00,
2013-02-20 08:40:00,-1.1,-8.0,29.72,North,0,0.7,2.7,72,0.00,,,0.00,WUHU216HW,2013-02-20 14:40:00,
2013-02-20 08:45:00,-0.9,-7.8,29.72,WNW,293,4.0,4.0,72,0.00,,,0.00,WUHU216HW,2013-02-20 14:45:00,
2013-02-20 08:50:00,-0.5,-7.5,29.72,NNE,23,3.4,6.0,72,0.00,,,0.00,WUHU216HW,2013-02-20 14:50:00,
2013-02-20 08:55:00,-0.5,-7.8,29.72,North,0,2.5,6.0,71,0.00,,,0.00,WUHU216HW,2013-02-20 14:55:00,
2013-02-20 09:00:00,-0.4,-7.6,29.72,NE,45,0.7,3.4,71,0.00,,,0.00,WUHU216HW,2013-02-20 15:00:00,
2013-02-20 09:05:00,-0.2,-7.5,29.72,East,90,1.6,2.7,71,0.00,,,0.00,WUHU216HW,2013-02-20 15:05:00,
2013-02-20 09:10:00,0.0,-7.6,29.72,NNE,23,4.5,6.0,70,0.00,,,0.00,WUHU216HW,2013-02-20 15:10:00,
2013-02-20 09:15:00,0.0,-7.8,29.72,NNE,23,5.4,6.0,69,0.00,,,0.00,WUHU216HW,2013-02-20 15:15:00,
2013-02-20 09:20:00,0.0,-7.8,29.72,ENE,68,3.4,5.4,69,0.00,,,0.00,WUHU216HW,2013-02-20 15:20:00,
2013-02-20 09:25:00,0.2,-7.6,29.72,ENE,68,4.9,4.9,69,0.00,,,0.00,WUHU216HW,2013-02-20 15:25:00,
2013-02-20 09:30:00,0.4,-7.5,29.72,NNE,23,3.4,4.9,69,0.00,,,0.00,WUHU216HW,2013-02-20 15:30:00,
2013-02-20 09:37:00,1.1,-6.5,29.72,ESE,113,4.0,6.9,70,0.00,,,0.00,WUHU216HW,2013-02-20 15:37:00,
2013-02-20 09:42:00,1.1,-6.5,29.72,NE,45,3.4,6.9,70,0.00,,,0.00,WUHU216HW,2013-02-20 15:42:00,
2013-02-20 09:47:00,1.3,-6.7,29.72,East,90,4.3,6.0,69,0.00,,,0.00,WUHU216HW,2013-02-20 15:47:00,
2013-02-20 10:00:00,1.3,-6.7,29.72,NNE,23,5.4,5.4,69,0.00,,,0.00,WUHU216HW,2013-02-20 16:00:00,
2013-02-20 10:05:00,1.3,-6.9,29.72,East,90,1.3,7.6,68,0.00,,,0.00,WUHU216HW,2013-02-20 16:05:00,
2013-02-20 10:10:00,2.2,-5.8,29.72,ESE,113,5.6,7.6,69,0.00,,,0.00,WUHU216HW,2013-02-20 16:10:00,
2013-02-20 10:15:00,2.5,-5.7,29.72,ESE,113,3.1,6.0,68,0.00,,,0.00,WUHU216HW,2013-02-20 16:15:00,
2013-02-20 10:20:00,2.5,-5.7,29.72,NNE,23,0.7,5.4,68,0.00,,,0.00,WUHU216HW,2013-02-20 16:20:00,
2013-02-20 10:25:00,3.1,-5.1,29.72,SE,135,5.4,5.8,68,0.00,,,0.00,WUHU216HW,2013-02-20 16:25:00,
2013-02-20 10:30:00,3.4,-4.8,29.72,NNE,23,2.0,5.8,68,0.00,,,0.00,WUHU216HW,2013-02-20 16:30:00,
2013-02-20 10:35:00,3.6,-4.9,29.72,ESE,113,2.5,4.7,67,0.00,,,0.00,WUHU216HW,2013-02-20 16:35:00,
2013-02-20 10:40:00,3.6,-4.9,29.72,ESE,113,4.7,5.4,67,0.00,,,0.00,WUHU216HW,2013-02-20 16:40:00,
2013-02-20 10:45:00,4.0,-4.7,29.72,ENE,68,0.4,5.4,67,0.00,,,0.00,WUHU216HW,2013-02-20 16:45:00,
2013-02-20 10:50:00,4.3,-4.3,29.72,East,90,2.7,3.8,67,0.00,,,0.00,WUHU216HW,2013-02-20 16:50:00,
2013-02-20 10:55:00,4.7,-3.9,29.72,ENE,68,0.9,3.8,67,0.00,,,0.00,WUHU216HW,2013-02-20 16:55:00,
2013-02-20 11:00:00,5.2,-3.5,29.73,ESE,113,4.5,4.5,67,0.00,,,0.00,WUHU216HW,2013-02-20 17:00:00,
2013-02-20 11:05:00,5.6,-3.1,29.73,East,90,0.9,4.5,67,0.00,,,0.00,WUHU216HW,2013-02-20 17:05:00,
2013-02-20 11:10:00,5.8,-3.0,29.72,North,0,0.2,4.5,67,0.00,,,0.00,WUHU216HW,2013-02-20 17:10:00,
2013-02-20 11:15:00,6.1,-2.6,29.72,NNE,23,1.6,2.2,67,0.00,,,0.00,WUHU216HW,2013-02-20 17:15:00,
2013-02-20 11:20:00,6.7,-2.3,29.72,North,0,1.1,1.6,66,0.00,,,0.00,WUHU216HW,2013-02-20 17:20:00,
2013-02-20 11:25:00,7.2,-1.9,29.72,North,0,1.8,2.5,66,0.00,,,0.00,WUHU216HW,2013-02-20 17:25:00,
2013-02-20 11:30:00,6.7,-2.7,29.73,NNE,23,2.2,3.4,65,0.00,,,0.00,WUHU216HW,2013-02-20 17:30:00,
2013-02-20 11:35:00,6.1,-3.6,29.73,North,0,1.8,3.4,64,0.00,,,0.00,WUHU216HW,2013-02-20 17:35:00,
2013-02-20 11:40:00,6.3,-3.1,29.73,NNE,23,2.5,2.9,65,0.00,,,0.00,WUHU216HW,2013-02-20 17:40:00,
2013-02-20 11:45:00,6.7,-2.7,29.72,North,0,0.2,2.5,65,0.00,,,0.00,WUHU216HW,2013-02-20 17:45:00,
2013-02-20 11:50:00,6.8,-2.5,29.73,East,90,1.3,2.5,65,0.00,,,0.00,WUHU216HW,2013-02-20 17:50:00,
2013-02-20 11:55:00,6.8,-2.9,29.72,NE,45,2.7,2.9,64,0.00,,,0.00,WUHU216HW,2013-02-20 17:55:00,
2013-02-20 12:00:00,7.0,-2.3,29.73,NNE,23,2.2,3.8,65,0.00,,,0.00,WUHU216HW,2013-02-20 18:00:00,
2013-02-20 12:05:00,7.2,-2.5,29.73,NE,45,1.8,4.0,64,0.00,,,0.00,WUHU216HW,2013-02-20 18:05:00,
2013-02-20 12:10:00,7.4,-2.3,29.73,SE,135,1.3,4.0,64,0.00,,,0.00,WUHU216HW,2013-02-20 18:10:00,
2013-02-20 12:15:00,7.9,-1.8,29.72,East,90,0.2,3.1,64,0.00,,,0.00,WUHU216HW,2013-02-20 18:15:00,
2013-02-20 12:20:00,8.3,-1.2,29.72,East,90,0.4,3.1,65,0.00,,,0.00,WUHU216HW,2013-02-20 18:20:00,
2013-02-20 12:25:00,9.0,-0.8,29.72,SE,135,1.8,3.1,64,0.00,,,0.00,WUHU216HW,2013-02-20 18:25:00,
2013-02-20 12:30:00,9.4,-0.4,29.71,East,90,2.2,3.1,64,0.00,,,0.00,WUHU216HW,2013-02-20 18:30:00,
2013-02-20 12:35:00,9.4,-0.4,29.71,NNE,23,0.7,2.2,64,0.00,,,0.00,WUHU216HW,2013-02-20 18:35:00,
2013-02-20 12:40:00,9.5,-0.3,29.72,North,0,0.0,1.8,64,0.00,,,0.00,WUHU216HW,2013-02-20 18:40:00,
2013-02-20 12:45:00,9.9,0.1,29.72,NE,45,2.2,2.5,64,0.00,,,0.00,WUHU216HW,2013-02-20 18:45:00,
2013-02-20 12:50:00,10.1,0.3,29.72,NNE,23,1.3,2.5,64,0.00,,,0.00,WUHU216HW,2013-02-20 18:50:00,
2013-02-20 12:55:00,10.1,-0.1,29.72,East,90,0.0,2.5,63,0.00,,,0.00,WUHU216HW,2013-02-20 18:55:00,
2013-02-20 13:00:00,10.4,0.3,29.72,ESE,113,3.4,3.4,63,0.00,,,0.00,WUHU216HW,2013-02-20 19:00:00,
2013-02-20 13:05:00,11.2,1.3,29.72,NNE,23,0.7,3.4,64,0.00,,,0.00,WUHU216HW,2013-02-20 19:05:00,
2013-02-20 13:10:00,11.5,1.6,29.72,NNE,23,1.6,3.4,64,0.00,,,0.00,WUHU216HW,2013-02-20 19:10:00,
2013-02-20 13:15:00,11.5,1.3,29.72,NNE,23,0.0,1.6,63,0.00,,,0.00,WUHU216HW,2013-02-20 19:15:00,
2013-02-20 13:20:00,11.9,1.6,29.72,WNW,293,0.2,1.1,63,0.00,,,0.00,WUHU216HW,2013-02-20 19:20:00,
2013-02-20 13:25:00,12.8,2.8,29.72,SSE,158,0.9,0.9,64,0.00,,,0.00,WUHU216HW,2013-02-20 19:25:00,
2013-02-20 13:30:00,13.3,3.0,29.72,East,90,1.1,1.3,63,0.00,,,0.00,WUHU216HW,2013-02-20 19:30:00,
2013-02-20 13:35:00,13.3,2.7,29.72,North,0,0.2,1.6,62,0.00,,,0.00,WUHU216HW,2013-02-20 19:35:00,
2013-02-20 13:40:00,13.7,3.1,29.72,WNW,293,0.4,1.6,62,0.00,,,0.00,WUHU216HW,2013-02-20 19:40:00,
2013-02-20 13:45:00,14.0,3.7,29.72,West,270,1.3,1.3,63,0.00,,,0.00,WUHU216HW,2013-02-20 19:45:00,
2013-02-20 13:50:00,14.8,4.1,29.72,SE,135,0.0,1.3,62,0.00,,,0.00,WUHU216HW,2013-02-20 19:50:00,
2013-02-20 13:55:00,14.9,4.2,29.72,SE,135,0.9,1.1,62,0.00,,,0.00,WUHU216HW,2013-02-20 19:55:00,
2013-02-20 14:00:00,15.3,4.1,29.72,WNW,293,0.2,1.1,61,0.00,,,0.00,WUHU216HW,2013-02-20 20:00:00,
2013-02-20 14:05:00,15.5,4.7,29.72,WNW,293,0.0,1.1,62,0.00,,,0.00,WUHU216HW,2013-02-20 20:05:00,
2013-02-20 14:10:00,16.2,5.1,29.72,SE,135,0.4,0.9,61,0.00,,,0.00,WUHU216HW,2013-02-20 20:10:00,
2013-02-20 14:15:00,16.2,5.1,29.72,ENE,68,1.1,1.1,61,0.00,,,0.00,WUHU216HW,2013-02-20 20:15:00,
2013-02-20 14:20:00,15.1,3.3,29.72,ESE,113,2.2,2.7,59,0.00,,,0.00,WUHU216HW,2013-02-20 20:20:00,
2013-02-20 14:25:00,14.9,3.2,29.72,ESE,113,1.1,2.7,59,0.00,,,0.00,WUHU216HW,2013-02-20 20:25:00,
2013-02-20 14:30:00,15.1,3.7,29.72,East,90,0.9,2.5,60,0.00,,,0.00,WUHU216HW,2013-02-20 20:30:00,
2013-02-20 14:35:00,15.1,2.9,29.72,ESE,113,0.4,2.5,58,0.00,,,0.00,WUHU216HW,2013-02-20 20:35:00,
2013-02-20 14:40:00,15.1,3.7,29.72,SSE,158,1.6,1.8,60,0.00,,,0.00,WUHU216HW,2013-02-20 20:40:00,
2013-02-20 14:45:00,15.5,4.0,29.72,East,90,0.4,2.5,60,0.00,,,0.00,WUHU216HW,2013-02-20 20:45:00,
2013-02-20 14:50:00,15.5,3.6,29.72,ENE,68,0.2,2.5,59,0.00,,,0.00,WUHU216HW,2013-02-20 20:50:00,
2013-02-20 14:55:00,15.3,3.4,29.72,ESE,113,1.1,1.8,59,0.00,,,0.00,WUHU216HW,2013-02-20 20:55:00,
2013-02-20 15:00:00,15.5,3.6,29.72,ESE,113,2.0,2.0,59,0.00,,,0.00,WUHU216HW,2013-02-20 21:00:00,
2013-02-20 15:05:00,15.1,2.5,29.71,SE,135,2.7,3.1,57,0.00,,,0.00,WUHU216HW,2013-02-20 21:05:00,
2013-02-20 15:10:00,15.7,3.8,29.71,SSE,158,1.8,3.4,59,0.00,,,0.00,WUHU216HW,2013-02-20 21:10:00,
2013-02-20 15:15:00,16.0,4.2,29.71,NE,45,0.4,3.4,59,0.00,,,0.00,WUHU216HW,2013-02-20 21:15:00,
2013-02-20 15:20:00,15.8,3.6,29.70,North,0,0.4,2.7,58,0.00,,,0.00,WUHU216HW,2013-02-20 21:20:00,
2013-02-20 15:25:00,15.5,2.4,29.70,NNW,338,0.7,2.5,56,0.00,,,0.00,WUHU216HW,2013-02-20 21:25:00,
2013-02-20 15:30:00,15.3,2.4,29.70,ENE,68,0.4,3.1,56,0.00,,,0.00,WUHU216HW,2013-02-20 21:30:00,
2013-02-20 15:35:00,15.3,2.4,29.70,ENE,68,1.8,4.9,56,0.00,,,0.00,WUHU216HW,2013-02-20 21:35:00,
2013-02-20 15:40:00,15.1,2.2,29.70,North,0,3.4,4.9,56,0.00,,,0.00,WUHU216HW,2013-02-20 21:40:00,
2013-02-20 15:45:00,15.1,2.2,29.70,NNE,23,1.1,3.4,56,0.00,,,0.00,WUHU216HW,2013-02-20 21:45:00,
2013-02-20 15:50:00,15.1,2.2,29.70,North,0,2.2,3.4,56,0.00,,,0.00,WUHU216HW,2013-02-20 21:50:00,
2013-02-20 15:55:00,14.9,2.0,29.70,NE,45,2.0,4.5,56,0.00,,,0.00,WUHU216HW,2013-02-20 21:55:00,
2013-02-20 16:00:00,14.9,2.0,29.70,ESE,113,1.8,4.5,56,0.00,,,0.00,WUHU216HW,2013-02-20 22:00:00,
2013-02-20 16:05:00,14.9,2.0,29.70,East,90,2.7,3.4,56,0.00,,,0.00,WUHU216HW,2013-02-20 22:05:00,
2013-02-20 16:10:00,14.9,2.0,29.70,East,90,1.8,2.7,56,0.00,,,0.00,WUHU216HW,2013-02-20 22:10:00,
2013-02-20 16:15:00,14.9,1.5,29.70,North,0,3.1,4.0,55,0.00,,,0.00,WUHU216HW,2013-02-20 22:15:00,
2013-02-20 16:20:00,14.9,2.0,29.69,East,90,3.1,4.0,56,0.00,,,0.00,WUHU216HW,2013-02-20 22:20:00,
2013-02-20 16:25:00,14.8,1.8,29.69,East,90,3.4,3.8,56,0.00,,,0.00,WUHU216HW,2013-02-20 22:25:00,
2013-02-20 16:30:00,14.8,1.8,29.70,ESE,113,3.4,4.3,56,0.00,,,0.00,WUHU216HW,2013-02-20 22:30:00,
2013-02-20 16:35:00,14.8,1.8,29.69,ENE,68,1.6,4.3,56,0.00,,,0.00,WUHU216HW,2013-02-20 22:35:00,
2013-02-20 16:40:00,14.8,1.8,29.70,ENE,68,1.8,4.9,56,0.00,,,0.00,WUHU216HW,2013-02-20 22:40:00,
2013-02-20 16:45:00,14.8,1.8,29.69,ENE,68,3.1,4.9,56,0.00,,,0.00,WUHU216HW,2013-02-20 22:45:00,
2013-02-20 16:50:00,14.8,1.8,29.69,East,90,1.3,3.4,56,0.00,,,0.00,WUHU216HW,2013-02-20 22:50:00,
2013-02-20 16:55:00,14.8,2.2,29.69,NNE,23,1.3,3.4,57,0.00,,,0.00,WUHU216HW,2013-02-20 22:55:00,
2013-02-20 17:00:00,14.6,2.0,29.69,NNE,23,2.7,3.4,57,0.00,,,0.00,WUHU216HW,2013-02-20 23:00:00,
2013-02-20 17:05:00,14.4,1.9,29.69,East,90,2.9,3.4,57,0.00,,,0.00,WUHU216HW,2013-02-20 23:05:00,
2013-02-20 17:10:00,14.2,1.7,29.69,East,90,0.9,3.4,57,0.00,,,0.00,WUHU216HW,2013-02-20 23:10:00,
2013-02-20 17:15:00,14.0,1.5,29.69,ESE,113,2.9,2.9,57,0.00,,,0.00,WUHU216HW,2013-02-20 23:15:00,
2013-02-20 17:20:00,14.0,1.5,29.68,ENE,68,1.8,4.0,57,0.00,,,0.00,WUHU216HW,2013-02-20 23:20:00,
2013-02-20 17:25:00,13.9,1.7,29.68,NE,45,0.9,4.0,58,0.00,,,0.00,WUHU216HW,2013-02-20 23:25:00,
2013-02-20 17:30:00,13.7,1.5,29.68,East,90,0.4,3.1,58,0.00,,,0.00,WUHU216HW,2013-02-20 23:30:00,
2013-02-20 17:35:00,13.7,1.5,29.68,East,90,0.7,2.0,58,0.00,,,0.00,WUHU216HW,2013-02-20 23:35:00,
2013-02-20 17:40:00,13.5,1.4,29.68,East,90,1.8,2.9,58,0.00,,,0.00,WUHU216HW,2013-02-20 23:40:00,
2013-02-20 17:45:00,13.5,1.4,29.68,ESE,113,2.5,2.9,58,0.00,,,0.00,WUHU216HW,2013-02-20 23:45:00,
2013-02-20 17:50:00,13.3,1.6,29.68,ESE,113,1.3,4.0,59,0.00,,,0.00,WUHU216HW,2013-02-20 23:50:00,
2013-02-20 17:55:00,13.1,1.5,29.68,SE,135,4.3,4.3,59,0.00,,,0.00,WUHU216HW,2013-02-20 23:55:00,
2013-02-20 18:00:00,13.0,1.6,29.68,East,90,0.4,4.3,60,0.00,,,0.00,WUHU216HW,2013-02-21 00:00:00,
2013-02-20 18:05:00,12.8,1.4,29.69,East,90,3.6,4.3,60,0.00,,,0.00,WUHU216HW,2013-02-21 00:05:00,
2013-02-20 18:10:00,12.6,1.3,29.68,East,90,3.1,4.0,60,0.00,,,0.00,WUHU216HW,2013-02-21 00:10:00,
2013-02-20 18:15:00,12.4,1.1,29.68,NNE,23,1.3,3.1,60,0.00,,,0.00,WUHU216HW,2013-02-21 00:15:00,
2013-02-20 18:20:00,12.2,0.9,29.68,East,90,0.7,2.2,60,0.00,,,0.00,WUHU216HW,2013-02-21 00:20:00,
2013-02-20 18:25:00,12.1,0.7,29.68,East,90,0.2,1.8,60,0.00,,,0.00,WUHU216HW,2013-02-21 00:25:00,
2013-02-20 18:30:00,12.1,1.1,29.68,East,90,0.0,0.7,61,0.00,,,0.00,WUHU216HW,2013-02-21 00:30:00,
2013-02-20 18:35:00,12.1,1.1,29.69,East,90,0.4,0.7,61,0.00,,,0.00,WUHU216HW,2013-02-21 00:35:00,
2013-02-20 18:40:00,12.1,1.1,29.69,East,90,0.0,0.4,61,0.00,,,0.00,WUHU216HW,2013-02-21 00:40:00,
2013-02-20 18:45:00,12.1,1.1,29.68,East,90,0.0,0.4,61,0.00,,,0.00,WUHU216HW,2013-02-21 00:45:00,
2013-02-20 18:50:00,12.1,1.1,29.68,East,90,0.0,0.4,61,0.00,,,0.00,WUHU216HW,2013-02-21 00:50:00,
2013-02-20 18:55:00,11.9,0.9,29.68,East,90,0.0,0.4,61,0.00,,,0.00,WUHU216HW,2013-02-21 00:55:00,
2013-02-20 19:00:00,11.9,0.9,29.68,East,90,0.0,0.4,61,0.00,,,0.00,WUHU216HW,2013-02-21 01:00:00,
2013-02-20 19:05:00,11.9,1.3,29.68,East,90,0.0,0.0,62,0.00,,,0.00,WUHU216HW,2013-02-21 01:05:00,
2013-02-20 19:10:00,11.9,1.3,29.68,East,90,0.0,0.0,62,0.00,,,0.00,WUHU216HW,2013-02-21 01:10:00,
2013-02-20 19:15:00,11.9,1.3,29.68,East,90,0.0,0.0,62,0.00,,,0.00,WUHU216HW,2013-02-21 01:15:00,
2013-02-20 19:20:00,12.1,1.5,29.68,East,90,0.0,0.0,62,0.00,,,0.00,WUHU216HW,2013-02-21 01:20:00,
2013-02-20 19:25:00,12.2,1.6,29.68,East,90,0.0,0.0,62,0.00,,,0.00,WUHU216HW,2013-02-21 01:25:00,
2013-02-20 19:30:00,12.2,1.6,29.67,East,90,0.0,0.0,62,0.00,,,0.00,WUHU216HW,2013-02-21 01:30:00,
2013-02-20 19:35:00,12.2,1.6,29.67,East,90,0.0,0.0,62,0.00,,,0.00,WUHU216HW,2013-02-21 01:35:00,
2013-02-20 19:40:00,12.2,1.9,29.67,East,90,0.0,0.0,63,0.00,,,0.00,WUHU216HW,2013-02-21 01:40:00,
2013-02-20 19:45:00,12.1,1.8,29.67,East,90,0.0,0.0,63,0.00,,,0.00,WUHU216HW,2013-02-21 01:45:00,
2013-02-20 19:50:00,11.5,1.3,29.67,East,90,0.0,0.2,63,0.00,,,0.00,WUHU216HW,2013-02-21 01:50:00,
2013-02-20 19:55:00,11.2,0.9,29.67,East,90,0.0,0.2,63,0.00,,,0.00,WUHU216HW,2013-02-21 01:55:00,
2013-02-20 20:00:00,11.0,0.7,29.67,East,90,0.0,0.0,63,0.00,,,0.00,WUHU216HW,2013-02-21 02:00:00,
2013-02-20 20:05:00,10.8,0.6,29.67,East,90,0.0,0.0,63,0.00,,,0.00,WUHU216HW,2013-02-21 02:05:00,
2013-02-20 20:10:00,10.8,0.6,29.67,East,90,0.0,0.0,63,0.00,,,0.00,WUHU216HW,2013-02-21 02:10:00,
2013-02-20 20:15:00,11.0,1.1,29.67,East,90,0.0,0.0,64,0.00,,,0.00,WUHU216HW,2013-02-21 02:15:00,
2013-02-20 20:20:00,10.6,0.7,29.67,East,90,0.0,0.0,64,0.00,,,0.00,WUHU216HW,2013-02-21 02:20:00,
2013-02-20 20:25:00,10.4,0.5,29.67,East,90,0.0,0.0,64,0.00,,,0.00,WUHU216HW,2013-02-21 02:25:00,
2013-02-20 20:30:00,10.4,0.5,29.67,ESE,113,0.2,0.2,64,0.00,,,0.00,WUHU216HW,2013-02-21 02:30:00,
2013-02-20 20:35:00,10.4,0.5,29.67,West,270,0.0,0.7,64,0.00,,,0.00,WUHU216HW,2013-02-21 02:35:00,
2013-02-20 20:40:00,10.6,0.7,29.67,West,270,0.0,0.7,64,0.00,,,0.00,WUHU216HW,2013-02-21 02:40:00,
2013-02-20 20:45:00,10.6,0.7,29.67,West,270,0.0,0.2,64,0.00,,,0.00,WUHU216HW,2013-02-21 02:45:00,
2013-02-20 20:50:00,10.6,0.7,29.67,West,270,0.0,0.0,64,0.00,,,0.00,WUHU216HW,2013-02-21 02:50:00,
2013-02-20 20:55:00,10.4,0.5,29.67,East,90,0.0,0.2,64,0.00,,,0.00,WUHU216HW,2013-02-21 02:55:00,
2013-02-20 21:00:00,9.9,0.1,29.67,East,90,0.0,0.2,64,0.00,,,0.00,WUHU216HW,2013-02-21 03:00:00,
2013-02-20 21:05:00,9.7,-0.1,29.67,East,90,0.0,0.0,64,0.00,,,0.00,WUHU216HW,2013-02-21 03:05:00,
2013-02-20 21:10:00,9.9,0.1,29.67,East,90,0.0,0.0,64,0.00,,,0.00,WUHU216HW,2013-02-21 03:10:00,
2013-02-20 21:15:00,9.9,0.4,29.67,SW,225,0.2,0.4,65,0.00,,,0.00,WUHU216HW,2013-02-21 03:15:00,
2013-02-20 21:20:00,9.7,0.2,29.67,WSW,248,0.0,0.4,65,0.00,,,0.00,WUHU216HW,2013-02-21 03:20:00,
2013-02-20 21:25:00,9.7,0.2,29.67,WSW,248,0.0,0.2,65,0.00,,,0.00,WUHU216HW,2013-02-21 03:25:00,
2013-02-20 21:30:00,9.7,0.2,29.67,WSW,248,0.0,0.0,65,0.00,,,0.00,WUHU216HW,2013-02-21 03:30:00,
2013-02-20 21:35:00,9.7,0.2,29.67,WSW,248,0.0,0.0,65,0.00,,,0.00,WUHU216HW,2013-02-21 03:35:00,
2013-02-20 21:40:00,9.7,0.2,29.68,WSW,248,0.0,0.0,65,0.00,,,0.00,WUHU216HW,2013-02-21 03:40:00,
2013-02-20 21:45:00,9.7,0.5,29.67,WSW,248,0.2,0.2,66,0.00,,,0.00,WUHU216HW,2013-02-21 03:45:00,
2013-02-20 21:50:00,9.7,0.5,29.68,WSW,248,0.4,0.4,66,0.00,,,0.00,WUHU216HW,2013-02-21 03:50:00,
2013-02-20 21:55:00,9.7,0.5,29.68,West,270,0.0,0.4,66,0.00,,,0.00,WUHU216HW,2013-02-21 03:55:00,
2013-02-20 22:00:00,9.7,0.5,29.68,West,270,0.0,0.4,66,0.00,,,0.00,WUHU216HW,2013-02-21 04:00:00,
2013-02-20 22:05:00,9.5,0.4,29.68,WSW,248,0.0,0.0,66,0.00,,,0.00,WUHU216HW,2013-02-21 04:05:00,
2013-02-20 22:10:00,9.2,0.0,29.67,SW,225,0.0,0.0,66,0.00,,,0.00,WUHU216HW,2013-02-21 04:10:00,
2013-02-20 22:15:00,8.5,-0.6,29.67,ESE,113,0.2,0.4,66,0.00,,,0.00,WUHU216HW,2013-02-21 04:15:00,
2013-02-20 22:20:00,7.9,-1.2,29.67,SE,135,0.2,0.7,66,0.00,,,0.00,WUHU216HW,2013-02-21 04:20:00,
2013-02-20 22:25:00,7.2,-1.5,29.67,ESE,113,0.4,0.9,67,0.00,,,0.00,WUHU216HW,2013-02-21 04:25:00,
2013-02-20 22:30:00,6.8,-1.9,29.67,ESE,113,0.4,0.9,67,0.00,,,0.00,WUHU216HW,2013-02-21 04:30:00,
2013-02-20 22:35:00,6.5,-1.9,29.67,East,90,0.4,0.4,68,0.00,,,0.00,WUHU216HW,2013-02-21 04:35:00,
2013-02-20 22:40:00,6.5,-1.9,29.67,East,90,0.2,0.4,68,0.00,,,0.00,WUHU216HW,2013-02-21 04:40:00,
2013-02-20 22:45:00,6.8,-1.5,29.67,ESE,113,0.0,0.9,68,0.00,,,0.00,WUHU216HW,2013-02-21 04:45:00,
2013-02-20 22:50:00,7.0,-1.3,29.67,East,90,0.2,0.9,68,0.00,,,0.00,WUHU216HW,2013-02-21 04:50:00,
2013-02-20 22:55:00,7.0,-1.3,29.67,East,90,0.2,0.4,68,0.00,,,0.00,WUHU216HW,2013-02-21 04:55:00,
2013-02-20 23:00:00,7.0,-1.3,29.67,East,90,0.2,0.4,68,0.00,,,0.00,WUHU216HW,2013-02-21 05:00:00,
2013-02-20 23:05:00,7.0,-1.3,29.67,East,90,0.0,0.4,68,0.00,,,0.00,WUHU216HW,2013-02-21 05:05:00,
2013-02-20 23:10:00,6.8,-1.5,29.66,ESE,113,0.4,0.4,68,0.00,,,0.00,WUHU216HW,2013-02-21 05:10:00,
2013-02-20 23:15:00,6.5,-1.9,29.67,ESE,113,0.4,0.4,68,0.00,,,0.00,WUHU216HW,2013-02-21 05:15:00,
2013-02-20 23:20:00,6.7,-1.7,29.67,ESE,113,0.4,0.9,68,0.00,,,0.00,WUHU216HW,2013-02-21 05:20:00,
2013-02-20 23:25:00,6.8,-1.5,29.67,ESE,113,0.4,1.6,68,0.00,,,0.00,WUHU216HW,2013-02-21 05:25:00,
2013-02-20 23:30:00,6.5,-1.9,29.67,ESE,113,0.4,1.6,68,0.00,,,0.00,WUHU216HW,2013-02-21 05:30:00,
2013-02-20 23:35:00,6.3,-2.1,29.66,ESE,113,0.2,0.9,68,0.00,,,0.00,WUHU216HW,2013-02-21 05:35:00,
2013-02-20 23:40:00,6.3,-2.1,29.66,ESE,113,0.2,0.7,68,0.00,,,0.00,WUHU216HW,2013-02-21 05:40:00,
2013-02-20 23:45:00,6.7,-1.4,29.67,East,90,0.4,0.9,69,0.00,,,0.00,WUHU216HW,2013-02-21 05:45:00,
2013-02-20 23:50:00,6.8,-1.3,29.67,ESE,113,0.2,0.9,69,0.00,,,0.00,WUHU216HW,2013-02-21 05:50:00,
2013-02-20 23:55:00,7.0,-1.1,29.67,ESE,113,0.4,0.9,69,0.00,,,0.00,WUHU216HW,2013-02-21 05:55:00,